Wetterdaten: Sonntag, 07.08.2016
Datum Zeit Temp. A. Aussentemp2 Feuchte A. Luftdruck Regen Wind Richtung Richtung Sonnenschein Helligkeit Solar
07.08.2016 00:00 16,1 C 18,4 C 67 % 1026,8 hPa 0,0 l/m 11,1 km/h (2 Bft) W-NW22.5 285 0 min 0 lux 0 W/m
07.08.2016 00:05 16,1 C 18,4 C 67 % 1026,8 hPa 0,0 l/m 9,8 km/h (2 Bft) W22.5 280 0 min 0 lux 0 W/m
07.08.2016 00:11 16,0 C 18,4 C 67 % 1026,8 hPa 0,0 l/m 10,2 km/h (2 Bft) W-NW22.5 285 0 min 0 lux 0 W/m
07.08.2016 00:15 15,9 C 18,4 C 67 % 1026,8 hPa 0,0 l/m 7,3 km/h (2 Bft) W-NW22.5 285 0 min 0 lux 0 W/m
07.08.2016 00:20 15,9 C 18,3 C 67 % 1026,8 hPa 0,0 l/m 10,1 km/h (2 Bft) W-NW 285 0 min 0 lux 0 W/m
07.08.2016 00:25 15,8 C 18,3 C 68 % 1026,8 hPa 0,0 l/m 7,5 km/h (2 Bft) W-NW 285 0 min 0 lux 0 W/m
07.08.2016 00:30 15,6 C 18,3 C 69 % 1026,8 hPa 0,0 l/m 5,9 km/h (2 Bft) W 280 0 min 0 lux 0 W/m
07.08.2016 00:35 15,5 C 18,2 C 69 % 1026,8 hPa 0,0 l/m 7,2 km/h (2 Bft) W-NW 285 0 min 0 lux 0 W/m
07.08.2016 00:41 15,5 C 18,2 C 69 % 1026,8 hPa 0,0 l/m 7,5 km/h (2 Bft) W 280 0 min 0 lux 0 W/m
07.08.2016 00:45 15,5 C 18,2 C 70 % 1026,8 hPa 0,0 l/m 6,5 km/h (2 Bft) W 270 0 min 0 lux 0 W/m
07.08.2016 00:50 15,4 C 18,1 C 70 % 1026,8 hPa 0,0 l/m 8,5 km/h (2 Bft) W22.5 280 0 min 0 lux 0 W/m
07.08.2016 00:55 15,3 C 18,1 C 70 % 1026,8 hPa 0,0 l/m 4,8 km/h (1 Bft) W 275 0 min 0 lux 0 W/m
07.08.2016 01:00 15,4 C 18,1 C 69 % 1026,8 hPa 0,0 l/m 6,4 km/h (2 Bft) W 280 0 min 0 lux 0 W/m
07.08.2016 01:05 15,5 C 18,1 C 69 % 1026,8 hPa 0,0 l/m 8,5 km/h (2 Bft) W-NW 290 0 min 0 lux 0 W/m
07.08.2016 01:10 15,5 C 18,0 C 68 % 1026,8 hPa 0,0 l/m 7,0 km/h (2 Bft) W-NW 295 0 min 0 lux 0 W/m
07.08.2016 01:15 15,5 C 18,1 C 69 % 1026,8 hPa 0,0 l/m 6,5 km/h (2 Bft) W-NW 290 0 min 0 lux 0 W/m
07.08.2016 01:20 15,3 C 18,0 C 69 % 1026,8 hPa 0,0 l/m 5,6 km/h (2 Bft) W-NW 290 0 min 0 lux 0 W/m
07.08.2016 01:26 15,3 C 18,0 C 70 % 1026,8 hPa 0,0 l/m 5,9 km/h (2 Bft) W 280 0 min 0 lux 0 W/m
07.08.2016 01:31 15,0 C 18,0 C 69 % 1026,8 hPa 0,0 l/m 0,3 km/h (0 Bft) W 275 0 min 0 lux 0 W/m
07.08.2016 01:35 14,6 C 17,9 C 70 % 1026,8 hPa 0,0 l/m 2,8 km/h (1 Bft) W 275 0 min 0 lux 0 W/m
07.08.2016 01:40 14,4 C 17,9 C 70 % 1026,8 hPa 0,0 l/m 0,0 km/h (0 Bft) W 275 0 min 0 lux 0 W/m
07.08.2016 01:45 14,0 C 17,9 C 71 % 1026,8 hPa 0,0 l/m 0,3 km/h (0 Bft) W 275 0 min 0 lux 0 W/m
07.08.2016 01:50 13,8 C 17,9 C 72 % 1026,8 hPa 0,0 l/m 0,0 km/h (0 Bft) W 275 0 min 0 lux 0 W/m
07.08.2016 01:56 13,6 C 17,9 C 72 % 1026,8 hPa 0,0 l/m 0,7 km/h (0 Bft) W 275 0 min 0 lux 0 W/m
07.08.2016 02:00 13,6 C 17,9 C 72 % 1026,8 hPa 0,0 l/m 4,0 km/h (1 Bft) W 275 0 min 0 lux 0 W/m
07.08.2016 02:05 13,5 C 17,8 C 73 % 1026,8 hPa 0,0 l/m 2,8 km/h (1 Bft) W 275 0 min 0 lux 0 W/m
07.08.2016 02:10 13,4 C 17,6 C 73 % 1026,8 hPa 0,0 l/m 0,0 km/h (0 Bft) W 275 0 min 0 lux 0 W/m
07.08.2016 02:16 13,4 C 17,7 C 74 % 1026,8 hPa 0,0 l/m 0,0 km/h (0 Bft) W 280 0 min 0 lux 0 W/m
07.08.2016 02:20 13,4 C 17,8 C 74 % 1026,8 hPa 0,0 l/m 0,0 km/h (0 Bft) W 280 0 min 0 lux 0 W/m
07.08.2016 02:25 13,3 C 17,7 C 74 % 1026,8 hPa 0,0 l/m 0,0 km/h (0 Bft) W 280 0 min 0 lux 0 W/m
07.08.2016 02:30 13,3 C 17,7 C 75 % 1026,8 hPa 0,0 l/m 0,0 km/h (0 Bft) W 280 0 min 0 lux 0 W/m
07.08.2016 02:35 13,2 C 17,5 C 75 % 1026,8 hPa 0,0 l/m 0,0 km/h (0 Bft) W 280 0 min 0 lux 0 W/m
07.08.2016 02:40 13,2 C 17,5 C 75 % 1026,8 hPa 0,0 l/m 0,0 km/h (0 Bft) W 275 0 min 0 lux 0 W/m
07.08.2016 02:46 13,1 C 17,5 C 75 % 1026,8 hPa 0,0 l/m 0,0 km/h (0 Bft) W 275 0 min 0 lux 0 W/m
07.08.2016 02:50 13,0 C 17,5 C 75 % 1026,8 hPa 0,0 l/m 0,0 km/h (0 Bft) W 275 0 min 0 lux 0 W/m
07.08.2016 02:55 12,9 C 17,4 C 76 % 1026,8 hPa 0,0 l/m 0,0 km/h (0 Bft) W 275 0 min 0 lux 0 W/m
07.08.2016 03:00 12,9 C 17,5 C 76 % 1026,8 hPa 0,0 l/m 0,0 km/h (0 Bft) W 275 0 min 0 lux 0 W/m
07.08.2016 03:06 12,8 C 17,3 C 76 % 1026,8 hPa 0,0 l/m 0,0 km/h (0 Bft) W 275 0 min 0 lux 0 W/m
07.08.2016 03:10 12,7 C 17,2 C 76 % 1026,8 hPa 0,0 l/m 0,0 km/h (0 Bft) W 275 0 min 0 lux 0 W/m
07.08.2016 03:15 12,7 C 17,2 C 77 % 1026,8 hPa 0,0 l/m 0,0 km/h (0 Bft) W 275 0 min 0 lux 0 W/m
07.08.2016 03:20 12,6 C 17,2 C 77 % 1026,8 hPa 0,0 l/m 0,0 km/h (0 Bft) W 275 0 min 0 lux 0 W/m
07.08.2016 03:25 12,6 C 17,2 C 77 % 1026,8 hPa 0,0 l/m 0,0 km/h (0 Bft) W 275 0 min 0 lux 0 W/m
07.08.2016 03:31 12,6 C 17,1 C 78 % 1026,8 hPa 0,0 l/m 0,0 km/h (0 Bft) W 275 0 min 0 lux 0 W/m
07.08.2016 03:36 12,6 C 17,2 C 78 % 1026,8 hPa 0,0 l/m 0,0 km/h (0 Bft) W 275 0 min 0 lux 0 W/m
07.08.2016 03:40 12,6 C 17,1 C 78 % 1026,8 hPa 0,0 l/m 0,0 km/h (0 Bft) W 275 0 min 0 lux 0 W/m
07.08.2016 03:45 12,5 C 17,0 C 78 % 1026,8 hPa 0,0 l/m 0,0 km/h (0 Bft) W 275 0 min 0 lux 0 W/m
07.08.2016 03:50 12,4 C 17,0 C 78 % 1026,8 hPa 0,0 l/m 0,0 km/h (0 Bft) W 275 0 min 0 lux 0 W/m
07.08.2016 03:55 12,4 C 16,9 C 78 % 1026,8 hPa 0,0 l/m 0,0 km/h (0 Bft) W 275 0 min 0 lux 0 W/m
07.08.2016 04:01 12,3 C 16,9 C 79 % 1026,8 hPa 0,0 l/m 0,0 km/h (0 Bft) W 275 0 min 0 lux 0 W/m
07.08.2016 04:05 12,2 C 16,9 C 79 % 1026,8 hPa 0,0 l/m 0,0 km/h (0 Bft) W 275 0 min 0 lux 0 W/m
07.08.2016 04:10 12,2 C 16,9 C 79 % 1026,8 hPa 0,0 l/m 0,0 km/h (0 Bft) W 275 0 min 0 lux 0 W/m
07.08.2016 04:15 12,1 C 16,8 C 79 % 1026,8 hPa 0,0 l/m 0,0 km/h (0 Bft) W 275 0 min 0 lux 0 W/m
07.08.2016 04:21 12,0 C 16,8 C 80 % 1026,8 hPa 0,0 l/m 0,0 km/h (0 Bft) W 275 0 min 0 lux 0 W/m
07.08.2016 04:25 12,0 C 16,8 C 80 % 1026,8 hPa 0,0 l/m 0,0 km/h (0 Bft) W 275 0 min 0 lux 0 W/m
07.08.2016 04:30 12,0 C 16,8 C 80 % 1026,8 hPa 0,0 l/m 0,0 km/h (0 Bft) W 275 0 min 0 lux 0 W/m
07.08.2016 04:35 12,1 C 16,8 C 80 % 1026,8 hPa 0,0 l/m 0,0 km/h (0 Bft) W 275 0 min 0 lux 0 W/m
07.08.2016 04:40 12,2 C 16,8 C 81 % 1026,8 hPa 0,0 l/m 0,0 km/h (0 Bft) W 275 0 min 0 lux 0 W/m
07.08.2016 04:46 12,2 C 16,8 C 81 % 1026,8 hPa 0,0 l/m 0,3 km/h (0 Bft) W 275 0 min 0 lux 0 W/m
07.08.2016 04:50 12,2 C 16,7 C 81 % 1025,8 hPa 0,0 l/m 6,3 km/h (2 Bft) SO67.5 135 0 min 0 lux 0 W/m
07.08.2016 04:55 12,1 C 16,6 C 82 % 1025,8 hPa 0,0 l/m 7,1 km/h (2 Bft) O-SO22.5 120 0 min 0 lux 0 W/m
07.08.2016 05:00 12,1 C 16,6 C 82 % 1025,8 hPa 0,0 l/m 0,4 km/h (0 Bft) O-SO 115 0 min 0 lux 0 W/m
07.08.2016 05:06 12,1 C 16,6 C 82 % 1025,8 hPa 0,0 l/m 0,1 km/h (0 Bft) O-SO 115 0 min 0 lux 0 W/m
07.08.2016 05:10 12,0 C 16,6 C 82 % 1025,8 hPa 0,0 l/m 0,0 km/h (0 Bft) O-SO 115 0 min 0 lux 0 W/m
07.08.2016 05:15 12,0 C 16,6 C 82 % 1025,8 hPa 0,0 l/m 0,3 km/h (0 Bft) O-SO 115 0 min 0 lux 0 W/m
07.08.2016 05:20 12,2 C 16,7 C 82 % 1025,8 hPa 0,0 l/m 4,3 km/h (1 Bft) O-SO 115 0 min 0 lux 0 W/m
07.08.2016 05:25 12,2 C 16,7 C 82 % 1026,8 hPa 0,0 l/m 6,0 km/h (2 Bft) SO22.5 125 0 min 0 lux 0 W/m
07.08.2016 05:31 12,2 C 16,7 C 82 % 1026,8 hPa 0,0 l/m 4,6 km/h (1 Bft) S-SO 150 0 min 0 lux 0 W/m
07.08.2016 05:36 12,2 C 16,6 C 82 % 1026,8 hPa 0,0 l/m 4,6 km/h (1 Bft) S-SO 150 0 min 0 lux 0 W/m
07.08.2016 05:40 12,3 C 16,7 C 82 % 1026,8 hPa 0,0 l/m 4,3 km/h (1 Bft) S-SO 150 0 min 0 lux 0 W/m
07.08.2016 05:45 12,4 C 16,6 C 82 % 1025,8 hPa 0,0 l/m 4,0 km/h (1 Bft) S-SO 150 0 min 0 lux 0 W/m
07.08.2016 05:50 12,4 C 16,6 C 82 % 1025,8 hPa 0,0 l/m 9,0 km/h (2 Bft) S-SO22.5 150 0 min 55 lux 0 W/m
07.08.2016 05:55 12,5 C 16,7 C 82 % 1025,8 hPa 0,0 l/m 5,0 km/h (1 Bft) S-SO 155 0 min 105 lux 0 W/m
07.08.2016 06:01 12,6 C 16,6 C 82 % 1025,8 hPa 0,0 l/m 6,8 km/h (2 Bft) S-SO 155 0 min 184 lux 0 W/m
07.08.2016 06:05 12,6 C 16,6 C 82 % 1025,8 hPa 0,0 l/m 5,3 km/h (1 Bft) S-SO 150 0 min 383 lux 0 W/m
07.08.2016 06:10 12,6 C 16,6 C 82 % 1025,8 hPa 0,0 l/m 4,7 km/h (1 Bft) S-SO 150 0 min 471 lux 0 W/m
07.08.2016 06:15 12,7 C 16,6 C 82 % 1025,8 hPa 0,0 l/m 5,0 km/h (1 Bft) S-SO 150 0 min 675 lux 5 W/m
07.08.2016 06:21 12,6 C 16,6 C 82 % 1025,8 hPa 0,0 l/m 0,7 km/h (0 Bft) S-SO 150 0 min 902 lux 6 W/m
07.08.2016 06:25 12,6 C 16,6 C 82 % 1025,8 hPa 0,0 l/m 6,5 km/h (2 Bft) S-SO 150 0 min 1,15 klux 8 W/m
07.08.2016 06:30 12,6 C 16,6 C 83 % 1025,8 hPa 0,0 l/m 7,0 km/h (2 Bft) S-SO 150 0 min 1,41 klux 10 W/m
07.08.2016 06:35 12,6 C 16,5 C 83 % 1025,8 hPa 0,0 l/m 5,4 km/h (2 Bft) S-SO 150 0 min 1,68 klux 11 W/m
07.08.2016 06:40 12,7 C 16,5 C 83 % 1025,8 hPa 0,0 l/m 3,6 km/h (1 Bft) S-SO 150 0 min 1,94 klux 13 W/m
07.08.2016 06:46 12,8 C 16,6 C 83 % 1025,8 hPa 0,0 l/m 5,0 km/h (1 Bft) S-SO 150 0 min 2,21 klux 15 W/m
07.08.2016 06:50 12,7 C 16,5 C 83 % 1025,8 hPa 0,0 l/m 3,9 km/h (1 Bft) S-SO 150 0 min 2,48 klux 17 W/m
07.08.2016 06:55 12,8 C 16,5 C 83 % 1025,8 hPa 0,0 l/m 4,9 km/h (1 Bft) S-SO 150 0 min 2,60 klux 18 W/m
07.08.2016 07:00 12,8 C 16,6 C 83 % 1025,8 hPa 0,0 l/m 6,3 km/h (2 Bft) S-SO 150 0 min 3,03 klux 21 W/m
07.08.2016 07:06 13,0 C 16,6 C 83 % 1025,8 hPa 0,0 l/m 5,5 km/h (2 Bft) S-SO 150 0 min 3,26 klux 22 W/m
07.08.2016 07:10 13,0 C 16,6 C 83 % 1025,8 hPa 0,0 l/m 8,5 km/h (2 Bft) S-SO 150 0 min 3,49 klux 24 W/m
07.08.2016 07:15 13,3 C 16,6 C 84 % 1025,8 hPa 0,0 l/m 10,3 km/h (2 Bft) S-SO22.5 155 0 min 3,71 klux 25 W/m
07.08.2016 07:20 13,5 C 16,7 C 84 % 1025,8 hPa 0,0 l/m 10,5 km/h (2 Bft) S-SO 160 0 min 3,71 klux 25 W/m
07.08.2016 07:25 13,6 C 16,7 C 84 % 1025,8 hPa 0,0 l/m 10,6 km/h (2 Bft) S-SO22.5 160 0 min 4,01 klux 27 W/m
07.08.2016 07:31 13,7 C 16,6 C 84 % 1025,8 hPa 0,0 l/m 10,2 km/h (2 Bft) S-SO 160 0 min 4,11 klux 28 W/m
07.08.2016 07:35 13,8 C 16,8 C 83 % 1025,8 hPa 0,0 l/m 6,5 km/h (2 Bft) S-SO 155 0 min 4,38 klux 30 W/m
07.08.2016 07:40 14,2 C 16,8 C 83 % 1025,8 hPa 0,0 l/m 6,5 km/h (2 Bft) S-SO 155 0 min 7,17 klux 49 W/m
07.08.2016 07:45 14,4 C 16,8 C 83 % 1025,8 hPa 0,0 l/m 10,5 km/h (2 Bft) S-SO22.5 160 5 min 25,6 klux 175 W/m
07.08.2016 07:50 15,0 C 16,8 C 82 % 1025,8 hPa 0,0 l/m 14,0 km/h (3 Bft) S-SO22.5 150 5 min 27,1 klux 185 W/m
07.08.2016 07:55 15,1 C 16,8 C 81 % 1025,8 hPa 0,0 l/m 11,9 km/h (2 Bft) S22.5 170 5 min 28,5 klux 195 W/m
07.08.2016 08:01 15,3 C 16,9 C 81 % 1025,8 hPa 0,0 l/m 9,6 km/h (2 Bft) SO22.5 145 6 min 30,0 klux 205 W/m
07.08.2016 08:05 15,6 C 16,9 C 80 % 1025,8 hPa 0,0 l/m 10,0 km/h (2 Bft) S-SO22.5 150 4 min 31,2 klux 213 W/m
07.08.2016 08:10 15,9 C 16,9 C 80 % 1025,8 hPa 0,0 l/m 10,5 km/h (2 Bft) S-SO22.5 150 5 min 32,2 klux 220 W/m
07.08.2016 08:16 16,2 C 17,0 C 79 % 1025,7 hPa 0,0 l/m 14,3 km/h (3 Bft) S-SO22.5 155 6 min 32,8 klux 224 W/m
07.08.2016 08:21 16,3 C 17,0 C 79 % 1025,7 hPa 0,0 l/m 12,8 km/h (3 Bft) S-SO22.5 160 5 min 34,2 klux 234 W/m
07.08.2016 08:25 16,5 C 17,0 C 78 % 1025,7 hPa 0,0 l/m 14,2 km/h (3 Bft) S-SO22.5 160 4 min 35,4 klux 242 W/m
07.08.2016 08:30 16,8 C 17,0 C 77 % 1025,7 hPa 0,0 l/m 13,6 km/h (3 Bft) S-SO22.5 160 5 min 36,7 klux 251 W/m
07.08.2016 08:35 16,9 C 17,2 C 77 % 1025,7 hPa 0,0 l/m 10,8 km/h (2 Bft) S22.5 175 5 min 38,8 klux 265 W/m
07.08.2016 08:40 17,2 C 17,2 C 76 % 1025,7 hPa 0,0 l/m 12,0 km/h (2 Bft) S-SO22.5 160 5 min 41,4 klux 283 W/m
07.08.2016 08:46 17,4 C 17,3 C 75 % 1026,7 hPa 0,0 l/m 14,6 km/h (3 Bft) S22.5 185 6 min 43,2 klux 295 W/m
07.08.2016 08:50 17,5 C 17,3 C 74 % 1026,7 hPa 0,0 l/m 14,0 km/h (3 Bft) S45 175 4 min 40,5 klux 277 W/m
07.08.2016 08:55 17,6 C 17,3 C 74 % 1026,7 hPa 0,0 l/m 14,1 km/h (3 Bft) S-SO22.5 165 0 min 23,6 klux 161 W/m
07.08.2016 09:00 17,5 C 17,3 C 73 % 1026,7 hPa 0,0 l/m 13,2 km/h (3 Bft) S45 170 5 min 48,5 klux 332 W/m
07.08.2016 09:06 17,6 C 17,4 C 74 % 1025,7 hPa 0,0 l/m 11,6 km/h (2 Bft) S-SO22.5 160 6 min 46,2 klux 316 W/m
07.08.2016 09:10 17,8 C 17,3 C 73 % 1025,7 hPa 0,0 l/m 13,8 km/h (3 Bft) S-SO22.5 165 4 min 47,2 klux 323 W/m
07.08.2016 09:15 18,0 C 17,4 C 72 % 1025,7 hPa 0,0 l/m 17,3 km/h (3 Bft) S22.5 170 5 min 47,7 klux 326 W/m
07.08.2016 09:20 18,2 C 17,5 C 72 % 1025,7 hPa 0,0 l/m 12,0 km/h (2 Bft) S-SO22.5 160 5 min 49,1 klux 336 W/m
07.08.2016 09:25 18,4 C 17,5 C 72 % 1025,7 hPa 0,0 l/m 13,8 km/h (3 Bft) S-SO45 165 5 min 49,8 klux 341 W/m
07.08.2016 09:31 18,7 C 17,7 C 70 % 1025,7 hPa 0,0 l/m 13,0 km/h (3 Bft) S45 180 6 min 50,7 klux 347 W/m
07.08.2016 09:35 19,1 C 17,8 C 70 % 1025,7 hPa 0,0 l/m 11,2 km/h (2 Bft) S22.5 170 4 min 52,0 klux 356 W/m
07.08.2016 09:40 19,2 C 17,8 C 69 % 1025,7 hPa 0,0 l/m 14,6 km/h (3 Bft) S45 190 5 min 53,0 klux 363 W/m
07.08.2016 09:45 19,6 C 17,9 C 68 % 1025,7 hPa 0,0 l/m 14,6 km/h (3 Bft) S-SW45 210 5 min 54,2 klux 371 W/m
07.08.2016 09:50 19,7 C 18,0 C 67 % 1025,7 hPa 0,0 l/m 18,5 km/h (3 Bft) S-SW45 205 5 min 55,8 klux 382 W/m
07.08.2016 09:55 19,9 C 18,1 C 67 % 1025,7 hPa 0,0 l/m 10,1 km/h (2 Bft) S-SW45 200 5 min 57,0 klux 390 W/m
07.08.2016 10:01 20,2 C 18,2 C 66 % 1025,7 hPa 0,0 l/m 13,8 km/h (3 Bft) S-SW45 205 6 min 57,6 klux 394 W/m
07.08.2016 10:05 20,4 C 18,2 C 66 % 1025,7 hPa 0,0 l/m 14,0 km/h (3 Bft) S45 185 4 min 58,9 klux 403 W/m
07.08.2016 10:10 20,4 C 18,4 C 66 % 1025,7 hPa 0,0 l/m 21,2 km/h (4 Bft) S-SW45 210 5 min 59,1 klux 404 W/m
07.08.2016 10:16 20,5 C 18,4 C 66 % 1025,7 hPa 0,0 l/m 15,8 km/h (3 Bft) S-SW45 205 6 min 61,1 klux 418 W/m
07.08.2016 10:21 20,5 C 18,5 C 66 % 1025,7 hPa 0,0 l/m 18,0 km/h (3 Bft) S-SW45 200 5 min 61,7 klux 422 W/m
07.08.2016 10:25 20,7 C 18,5 C 65 % 1025,7 hPa 0,0 l/m 17,2 km/h (3 Bft) S-SW45 195 4 min 62,5 klux 428 W/m
07.08.2016 10:30 20,9 C 18,6 C 65 % 1025,7 hPa 0,0 l/m 20,6 km/h (4 Bft) S-SW45 210 5 min 64,1 klux 438 W/m
07.08.2016 10:35 21,2 C 18,8 C 64 % 1025,7 hPa 0,0 l/m 26,0 km/h (4 Bft) SW22.5 220 5 min 64,1 klux 438 W/m
07.08.2016 10:40 21,4 C 18,8 C 63 % 1025,7 hPa 0,0 l/m 19,3 km/h (3 Bft) SW45 230 5 min 65,8 klux 450 W/m
07.08.2016 10:46 21,6 C 19,0 C 63 % 1025,7 hPa 0,0 l/m 20,1 km/h (4 Bft) SW22.5 235 6 min 66,0 klux 451 W/m
07.08.2016 10:50 21,8 C 19,0 C 63 % 1025,7 hPa 0,0 l/m 22,7 km/h (4 Bft) SW22.5 225 4 min 66,9 klux 458 W/m
07.08.2016 10:55 22,1 C 19,0 C 59 % 1025,7 hPa 0,0 l/m 21,1 km/h (4 Bft) SW22.5 230 5 min 69,6 klux 476 W/m
07.08.2016 11:00 22,2 C 19,2 C 58 % 1025,7 hPa 0,0 l/m 25,6 km/h (4 Bft) SW45 220 5 min 68,9 klux 471 W/m
07.08.2016 11:06 22,4 C 19,3 C 56 % 1025,7 hPa 0,0 l/m 25,1 km/h (4 Bft) SW45 230 6 min 70,4 klux 482 W/m
07.08.2016 11:10 22,8 C 19,4 C 55 % 1025,7 hPa 0,0 l/m 24,8 km/h (4 Bft) SW45 215 4 min 72,5 klux 496 W/m
07.08.2016 11:15 22,9 C 19,9 C 55 % 1024,7 hPa 0,0 l/m 24,8 km/h (4 Bft) SW45 235 5 min 70,1 klux 479 W/m
07.08.2016 11:20 23,0 C 20,2 C 57 % 1024,7 hPa 0,0 l/m 29,0 km/h (5 Bft) W-SW45 250 5 min 74,9 klux 512 W/m
07.08.2016 11:25 23,2 C 20,0 C 54 % 1024,7 hPa 0,0 l/m 27,3 km/h (5 Bft) SW45 225 5 min 75,5 klux 516 W/m
07.08.2016 11:31 23,2 C 20,4 C 55 % 1024,7 hPa 0,0 l/m 29,2 km/h (5 Bft) SW67.5 235 6 min 76,2 klux 521 W/m
07.08.2016 11:35 23,3 C 20,3 C 55 % 1024,7 hPa 0,0 l/m 24,5 km/h (4 Bft) W-SW45 240 4 min 76,8 klux 525 W/m
07.08.2016 11:40 23,6 C 20,7 C 53 % 1024,7 hPa 0,0 l/m 24,7 km/h (4 Bft) SW45 215 5 min 76,7 klux 525 W/m
07.08.2016 11:45 23,6 C 20,7 C 54 % 1024,7 hPa 0,0 l/m 25,3 km/h (4 Bft) SW67.5 215 5 min 76,5 klux 523 W/m
07.08.2016 11:50 23,8 C 20,9 C 53 % 1024,6 hPa 0,0 l/m 25,3 km/h (4 Bft) S-SW45 205 5 min 77,1 klux 527 W/m
07.08.2016 11:56 23,8 C 20,7 C 53 % 1024,6 hPa 0,0 l/m 29,6 km/h (5 Bft) SW45 215 6 min 78,3 klux 536 W/m
07.08.2016 12:00 24,0 C 21,0 C 53 % 1024,6 hPa 0,0 l/m 27,5 km/h (5 Bft) SW45 215 4 min 79,1 klux 541 W/m
07.08.2016 12:05 24,0 C 20,7 C 52 % 1024,6 hPa 0,0 l/m 29,8 km/h (5 Bft) S-SW45 210 5 min 79,2 klux 542 W/m
07.08.2016 12:11 24,2 C 21,1 C 52 % 1024,6 hPa 0,0 l/m 25,0 km/h (4 Bft) SW45 215 6 min 80,4 klux 550 W/m
07.08.2016 12:16 24,4 C 21,3 C 50 % 1024,6 hPa 0,0 l/m 28,9 km/h (5 Bft) SW45 235 5 min 80,4 klux 550 W/m
07.08.2016 12:20 24,5 C 21,3 C 50 % 1024,6 hPa 0,0 l/m 26,8 km/h (4 Bft) SW22.5 215 4 min 78,5 klux 537 W/m
07.08.2016 12:25 24,4 C 21,2 C 50 % 1024,6 hPa 0,0 l/m 24,3 km/h (4 Bft) SW45 225 5 min 82,1 klux 562 W/m
07.08.2016 12:30 24,8 C 21,5 C 48 % 1024,6 hPa 0,0 l/m 32,7 km/h (5 Bft) SW45 225 5 min 81,9 klux 560 W/m
07.08.2016 12:35 24,9 C 21,7 C 49 % 1024,6 hPa 0,0 l/m 32,7 km/h (5 Bft) SW45 225 5 min 82,1 klux 562 W/m
07.08.2016 12:41 24,8 C 21,5 C 48 % 1023,6 hPa 0,0 l/m 33,4 km/h (5 Bft) SW45 220 6 min 82,8 klux 566 W/m
07.08.2016 12:45 24,9 C 21,6 C 47 % 1023,6 hPa 0,0 l/m 32,1 km/h (5 Bft) SW22.5 215 4 min 82,4 klux 564 W/m
07.08.2016 12:50 25,2 C 22,2 C 47 % 1023,6 hPa 0,0 l/m 30,3 km/h (5 Bft) SW45 220 5 min 82,8 klux 566 W/m
07.08.2016 12:55 25,2 C 21,8 C 46 % 1023,6 hPa 0,0 l/m 33,6 km/h (5 Bft) SW45 220 5 min 83,1 klux 568 W/m
07.08.2016 13:00 25,2 C 21,9 C 45 % 1023,6 hPa 0,0 l/m 29,7 km/h (5 Bft) SW45 220 5 min 84,0 klux 575 W/m
07.08.2016 13:05 25,2 C 21,6 C 46 % 1023,6 hPa 0,0 l/m 31,3 km/h (5 Bft) SW45 225 5 min 84,0 klux 575 W/m
07.08.2016 13:10 25,4 C 22,1 C 46 % 1023,6 hPa 0,0 l/m 26,9 km/h (4 Bft) SW45 220 5 min 84,1 klux 575 W/m
07.08.2016 13:15 25,8 C 22,6 C 47 % 1023,6 hPa 0,0 l/m 29,0 km/h (5 Bft) W-SW67.5 240 5 min 87,8 klux 601 W/m
07.08.2016 13:20 26,1 C 22,3 C 46 % 1023,6 hPa 0,0 l/m 29,5 km/h (5 Bft) SW67.5 230 5 min 105 klux 718 W/m
07.08.2016 13:26 26,0 C 22,6 C 46 % 1023,6 hPa 0,0 l/m 34,1 km/h (5 Bft) SW45 225 6 min 85,7 klux 586 W/m
07.08.2016 13:30 26,0 C 22,6 C 46 % 1023,6 hPa 0,0 l/m 21,6 km/h (4 Bft) W-SW45 240 0 min 59,5 klux 407 W/m
07.08.2016 13:35 26,2 C 22,9 C 46 % 1023,6 hPa 0,0 l/m 30,6 km/h (5 Bft) W-SW45 240 5 min 79,8 klux 546 W/m
07.08.2016 13:40 25,9 C 22,8 C 47 % 1023,6 hPa 0,0 l/m 33,7 km/h (5 Bft) W-SW67.5 240 5 min 89,0 klux 609 W/m
07.08.2016 13:45 26,0 C 22,9 C 48 % 1023,6 hPa 0,0 l/m 32,7 km/h (5 Bft) W-SW67.5 255 5 min 76,7 klux 525 W/m
07.08.2016 13:51 25,9 C 22,8 C 48 % 1023,6 hPa 0,0 l/m 34,6 km/h (5 Bft) W-SW45 240 6 min 96,0 klux 657 W/m
07.08.2016 13:56 26,2 C 22,8 C 49 % 1023,6 hPa 0,0 l/m 31,6 km/h (5 Bft) W-SW45 250 5 min 94,0 klux 643 W/m
07.08.2016 14:00 26,1 C 22,9 C 48 % 1023,6 hPa 0,0 l/m 38,6 km/h (6 Bft) SW45 235 4 min 89,4 klux 611 W/m
07.08.2016 14:05 26,1 C 23,2 C 49 % 1023,6 hPa 0,0 l/m 32,5 km/h (5 Bft) W-SW45 240 5 min 86,5 klux 592 W/m
07.08.2016 14:11 26,2 C 23,2 C 48 % 1023,6 hPa 0,0 l/m 29,0 km/h (5 Bft) SW45 230 6 min 85,8 klux 587 W/m
07.08.2016 14:15 26,4 C 23,5 C 49 % 1023,6 hPa 0,0 l/m 26,4 km/h (4 Bft) SW67.5 215 4 min 88,0 klux 602 W/m
07.08.2016 14:20 26,5 C 23,5 C 49 % 1023,6 hPa 0,0 l/m 35,9 km/h (5 Bft) SW22.5 225 5 min 88,0 klux 602 W/m
07.08.2016 14:25 26,3 C 23,5 C 49 % 1022,6 hPa 0,0 l/m 29,6 km/h (5 Bft) SW67.5 225 5 min 70,5 klux 482 W/m
07.08.2016 14:30 27,0 C 24,3 C 49 % 1022,6 hPa 0,0 l/m 28,6 km/h (5 Bft) W-SW45 250 5 min 97,5 klux 667 W/m
07.08.2016 14:36 27,0 C 24,1 C 49 % 1022,6 hPa 0,0 l/m 34,9 km/h (5 Bft) W22.5 260 6 min 65,4 klux 447 W/m
07.08.2016 14:41 26,9 C 23,4 C 50 % 1022,6 hPa 0,0 l/m 32,6 km/h (5 Bft) W-SW45 240 5 min 88,7 klux 607 W/m
07.08.2016 14:45 26,2 C 23,8 C 50 % 1022,6 hPa 0,0 l/m 23,6 km/h (4 Bft) SW45 230 0 min 42,5 klux 291 W/m
07.08.2016 14:50 25,9 C 23,6 C 52 % 1022,6 hPa 0,0 l/m 31,1 km/h (5 Bft) SW67.5 225 0 min 41,8 klux 286 W/m
07.08.2016 14:55 25,9 C 23,7 C 53 % 1022,6 hPa 0,0 l/m 30,5 km/h (5 Bft) W-SW45 245 0 min 43,2 klux 295 W/m
07.08.2016 15:00 25,9 C 23,7 C 55 % 1022,6 hPa 0,0 l/m 31,6 km/h (5 Bft) W-SW22.5 255 0 min 46,7 klux 319 W/m
07.08.2016 15:05 26,0 C 23,6 C 55 % 1022,6 hPa 0,0 l/m 23,9 km/h (4 Bft) SW45 225 0 min 33,0 klux 226 W/m
07.08.2016 15:10 25,6 C 23,6 C 56 % 1022,6 hPa 0,0 l/m 24,3 km/h (4 Bft) W-SW67.5 245 0 min 27,6 klux 189 W/m
07.08.2016 15:15 25,4 C 23,1 C 57 % 1022,6 hPa 0,0 l/m 24,3 km/h (4 Bft) W-SW67.5 245 0 min 28,5 klux 195 W/m
07.08.2016 15:21 25,1 C 23,1 C 58 % 1022,6 hPa 0,0 l/m 37,7 km/h (5 Bft) W-SW67.5 240 0 min 27,9 klux 191 W/m
07.08.2016 15:26 25,1 C 23,1 C 58 % 1022,6 hPa 0,0 l/m 33,1 km/h (5 Bft) W-SW67.5 240 0 min 25,6 klux 175 W/m
07.08.2016 15:30 25,0 C 23,3 C 58 % 1022,6 hPa 0,0 l/m 31,8 km/h (5 Bft) W-SW22.5 250 0 min 28,6 klux 196 W/m
07.08.2016 15:35 25,0 C 23,2 C 58 % 1022,6 hPa 0,0 l/m 33,0 km/h (5 Bft) W22.5 265 0 min 27,1 klux 185 W/m
07.08.2016 15:40 25,1 C 23,4 C 59 % 1022,6 hPa 0,0 l/m 28,5 km/h (5 Bft) W22.5 270 0 min 24,2 klux 166 W/m
07.08.2016 15:45 24,9 C 23,1 C 60 % 1022,6 hPa 0,0 l/m 32,0 km/h (5 Bft) W-SW22.5 255 0 min 25,1 klux 172 W/m
07.08.2016 15:51 24,8 C 23,0 C 60 % 1022,6 hPa 0,0 l/m 26,8 km/h (4 Bft) W-SW45 240 0 min 24,5 klux 168 W/m
07.08.2016 15:55 24,8 C 23,4 C 60 % 1022,6 hPa 0,0 l/m 25,4 km/h (4 Bft) W-SW22.5 250 0 min 33,4 klux 228 W/m
07.08.2016 16:00 25,1 C 23,3 C 59 % 1022,6 hPa 0,0 l/m 32,3 km/h (5 Bft) W-SW45 240 0 min 29,4 klux 201 W/m
07.08.2016 16:05 25,0 C 23,2 C 60 % 1022,6 hPa 0,0 l/m 32,9 km/h (5 Bft) W-SW45 250 0 min 24,8 klux 170 W/m
07.08.2016 16:11 25,0 C 23,3 C 60 % 1022,6 hPa 0,0 l/m 32,6 km/h (5 Bft) W-SW45 255 0 min 26,2 klux 179 W/m
07.08.2016 16:15 25,0 C 23,2 C 60 % 1022,6 hPa 0,0 l/m 31,8 km/h (5 Bft) W22.5 260 0 min 40,9 klux 280 W/m
07.08.2016 16:20 25,3 C 23,7 C 60 % 1022,6 hPa 0,0 l/m 24,5 km/h (4 Bft) SW45 225 0 min 47,8 klux 327 W/m
07.08.2016 16:25 25,5 C 23,6 C 58 % 1022,6 hPa 0,0 l/m 32,4 km/h (5 Bft) SW45 230 5 min 54,5 klux 373 W/m
07.08.2016 16:30 25,4 C 23,3 C 60 % 1022,6 hPa 0,0 l/m 26,5 km/h (4 Bft) W-SW22.5 250 0 min 23,7 klux 162 W/m
07.08.2016 16:36 25,2 C 23,2 C 61 % 1022,6 hPa 0,0 l/m 26,5 km/h (4 Bft) W-SW22.5 250 0 min 28,0 klux 192 W/m
07.08.2016 16:40 25,1 C 23,1 C 61 % 1022,6 hPa 0,0 l/m 29,5 km/h (5 Bft) SW45 220 0 min 31,5 klux 215 W/m
07.08.2016 16:45 25,2 C 23,2 C 61 % 1022,6 hPa 0,0 l/m 28,1 km/h (5 Bft) SW45 230 0 min 31,9 klux 218 W/m
07.08.2016 16:50 25,1 C 23,1 C 60 % 1021,6 hPa 0,0 l/m 30,8 km/h (5 Bft) W-SW45 240 0 min 29,4 klux 201 W/m
07.08.2016 16:55 25,1 C 23,2 C 61 % 1021,6 hPa 0,0 l/m 32,4 km/h (5 Bft) SW45 235 0 min 28,0 klux 192 W/m
07.08.2016 17:01 25,1 C 23,4 C 61 % 1022,6 hPa 0,0 l/m 26,1 km/h (4 Bft) W-SW45 245 0 min 24,9 klux 170 W/m
07.08.2016 17:05 25,0 C 23,0 C 60 % 1022,6 hPa 0,0 l/m 29,6 km/h (5 Bft) W-SW22.5 245 0 min 27,1 klux 185 W/m
07.08.2016 17:10 24,9 C 23,4 C 61 % 1021,6 hPa 0,0 l/m 22,6 km/h (4 Bft) SW67.5 215 0 min 23,7 klux 162 W/m
07.08.2016 17:16 24,8 C 23,5 C 61 % 1021,6 hPa 0,0 l/m 27,3 km/h (5 Bft) W-SW45 240 0 min 19,4 klux 133 W/m
07.08.2016 17:20 24,8 C 23,4 C 61 % 1021,6 hPa 0,0 l/m 23,1 km/h (4 Bft) SW22.5 235 0 min 17,8 klux 122 W/m
07.08.2016 17:25 24,7 C 23,0 C 62 % 1021,6 hPa 0,0 l/m 25,7 km/h (4 Bft) SW45 230 0 min 18,2 klux 124 W/m
07.08.2016 17:30 24,6 C 23,0 C 62 % 1021,6 hPa 0,0 l/m 25,5 km/h (4 Bft) SW45 230 0 min 19,9 klux 136 W/m
07.08.2016 17:35 24,5 C 23,0 C 62 % 1021,6 hPa 0,0 l/m 29,4 km/h (5 Bft) SW45 230 0 min 21,0 klux 144 W/m
07.08.2016 17:41 24,7 C 23,1 C 61 % 1021,6 hPa 0,0 l/m 28,6 km/h (5 Bft) SW67.5 230 0 min 23,9 klux 163 W/m
07.08.2016 17:46 24,7 C 23,0 C 62 % 1021,6 hPa 0,0 l/m 30,6 km/h (5 Bft) SW45 230 0 min 18,8 klux 129 W/m
07.08.2016 17:50 24,6 C 23,0 C 62 % 1021,6 hPa 0,0 l/m 27,8 km/h (5 Bft) SW45 225 0 min 17,2 klux 118 W/m
07.08.2016 17:55 24,6 C 22,9 C 62 % 1021,6 hPa 0,0 l/m 28,5 km/h (5 Bft) SW45 220 0 min 15,8 klux 108 W/m
07.08.2016 18:00 24,6 C 23,0 C 62 % 1021,6 hPa 0,0 l/m 26,3 km/h (4 Bft) SW45 225 0 min 21,8 klux 149 W/m
07.08.2016 18:05 24,6 C 23,1 C 62 % 1021,6 hPa 0,0 l/m 24,3 km/h (4 Bft) SW45 225 0 min 17,9 klux 122 W/m
07.08.2016 18:10 24,7 C 23,2 C 62 % 1021,6 hPa 0,0 l/m 31,0 km/h (5 Bft) SW67.5 225 5 min 46,3 klux 317 W/m
07.08.2016 18:15 24,8 C 23,0 C 61 % 1021,6 hPa 0,0 l/m 23,6 km/h (4 Bft) SW22.5 230 0 min 19,9 klux 136 W/m
07.08.2016 18:20 24,9 C 23,2 C 62 % 1021,6 hPa 0,0 l/m 23,6 km/h (4 Bft) SW22.5 230 0 min 23,2 klux 159 W/m
07.08.2016 18:26 25,1 C 23,3 C 61 % 1021,6 hPa 0,0 l/m 26,0 km/h (4 Bft) SW67.5 230 0 min 26,5 klux 181 W/m
07.08.2016 18:31 25,0 C 23,4 C 61 % 1021,6 hPa 0,0 l/m 32,7 km/h (5 Bft) SW45 230 0 min 16,4 klux 112 W/m
07.08.2016 18:35 24,8 C 23,5 C 61 % 1021,6 hPa 0,0 l/m 27,8 km/h (5 Bft) SW22.5 235 0 min 15,8 klux 108 W/m
07.08.2016 18:40 24,8 C 23,4 C 62 % 1021,6 hPa 0,0 l/m 25,8 km/h (4 Bft) SW45 225 0 min 14,1 klux 96 W/m
07.08.2016 18:45 24,6 C 23,3 C 62 % 1021,6 hPa 0,0 l/m 23,1 km/h (4 Bft) SW45 230 0 min 10,7 klux 73 W/m
07.08.2016 18:50 24,5 C 23,2 C 62 % 1021,6 hPa 0,0 l/m 21,3 km/h (4 Bft) W-SW45 245 0 min 10,6 klux 73 W/m
07.08.2016 18:56 24,4 C 23,1 C 63 % 1021,6 hPa 0,0 l/m 22,6 km/h (4 Bft) W-SW22.5 245 0 min 8,19 klux 56 W/m
07.08.2016 19:00 24,5 C 23,1 C 63 % 1020,6 hPa 0,0 l/m 21,6 km/h (4 Bft) SW45 235 0 min 10,4 klux 71 W/m
07.08.2016 19:05 24,5 C 23,3 C 62 % 1020,6 hPa 0,0 l/m 28,9 km/h (5 Bft) W45 260 0 min 11,2 klux 77 W/m
07.08.2016 19:11 24,6 C 23,1 C 62 % 1020,6 hPa 0,0 l/m 27,0 km/h (5 Bft) W-SW22.5 255 0 min 12,2 klux 83 W/m
07.08.2016 19:16 24,5 C 23,3 C 62 % 1020,6 hPa 0,0 l/m 26,1 km/h (4 Bft) SW45 235 0 min 12,1 klux 83 W/m
07.08.2016 19:20 24,6 C 23,1 C 62 % 1020,6 hPa 0,0 l/m 28,8 km/h (5 Bft) W-SW22.5 250 0 min 12,1 klux 83 W/m
07.08.2016 19:25 24,8 C 23,4 C 62 % 1020,6 hPa 0,0 l/m 20,5 km/h (4 Bft) SW45 235 5 min 24,5 klux 168 W/m
07.08.2016 19:30 25,0 C 23,5 C 62 % 1020,6 hPa 0,0 l/m 20,4 km/h (4 Bft) W-SW45 250 5 min 27,2 klux 186 W/m
07.08.2016 19:35 25,2 C 23,5 C 61 % 1020,6 hPa 0,0 l/m 25,1 km/h (4 Bft) W-SW45 250 5 min 33,0 klux 226 W/m
07.08.2016 19:41 25,4 C 23,6 C 60 % 1020,6 hPa 0,0 l/m 26,2 km/h (4 Bft) W-SW22.5 250 0 min 12,5 klux 86 W/m
07.08.2016 19:45 25,0 C 23,3 C 60 % 1020,6 hPa 0,0 l/m 29,1 km/h (5 Bft) W-SW45 240 0 min 9,6 klux 66 W/m
07.08.2016 19:50 24,5 C 23,0 C 62 % 1020,6 hPa 0,0 l/m 27,6 km/h (5 Bft) W-SW22.5 245 0 min 5,30 klux 36 W/m
07.08.2016 19:55 24,2 C 22,9 C 62 % 1020,6 hPa 0,0 l/m 23,3 km/h (4 Bft) W-SW22.5 240 0 min 5,21 klux 36 W/m
07.08.2016 20:00 24,2 C 23,0 C 62 % 1020,6 hPa 0,0 l/m 26,2 km/h (4 Bft) W-SW45 240 0 min 4,86 klux 33 W/m
07.08.2016 20:05 24,1 C 23,0 C 62 % 1020,6 hPa 0,0 l/m 24,4 km/h (4 Bft) W-SW45 245 0 min 4,02 klux 27 W/m
07.08.2016 20:10 24,1 C 22,9 C 63 % 1020,6 hPa 0,0 l/m 18,3 km/h (3 Bft) W-SW45 245 0 min 3,65 klux 25 W/m
07.08.2016 20:15 24,0 C 23,1 C 63 % 1020,6 hPa 0,0 l/m 22,6 km/h (4 Bft) W-SW45 245 0 min 3,36 klux 23 W/m
07.08.2016 20:21 24,0 C 22,9 C 63 % 1020,6 hPa 0,0 l/m 18,3 km/h (3 Bft) SW45 230 0 min 3,24 klux 22 W/m
07.08.2016 20:25 23,9 C 22,9 C 63 % 1020,6 hPa 0,0 l/m 25,0 km/h (4 Bft) SW45 225 0 min 3,88 klux 27 W/m
07.08.2016 20:30 24,0 C 22,9 C 63 % 1020,6 hPa 0,0 l/m 14,0 km/h (3 Bft) SW22.5 235 0 min 2,88 klux 20 W/m
07.08.2016 20:35 23,9 C 22,9 C 63 % 1020,6 hPa 0,0 l/m 14,4 km/h (3 Bft) SW22.5 225 0 min 2,09 klux 14 W/m
07.08.2016 20:40 23,8 C 22,8 C 63 % 1020,6 hPa 0,0 l/m 18,7 km/h (3 Bft) SW45 225 0 min 1,58 klux 11 W/m
07.08.2016 20:45 23,7 C 22,8 C 63 % 1020,6 hPa 0,0 l/m 15,2 km/h (3 Bft) W-SW22.5 240 0 min 1,17 klux 8 W/m
07.08.2016 20:51 23,6 C 22,7 C 63 % 1020,6 hPa 0,0 l/m 17,3 km/h (3 Bft) SW22.5 230 0 min 902 lux 6 W/m
07.08.2016 20:55 23,6 C 22,6 C 64 % 1020,6 hPa 0,0 l/m 15,1 km/h (3 Bft) SW22.5 225 0 min 526 lux 4 W/m
07.08.2016 21:00 23,5 C 22,7 C 64 % 1020,6 hPa 0,0 l/m 13,3 km/h (3 Bft) SW45 230 0 min 303 lux 2 W/m
07.08.2016 21:06 23,4 C 22,5 C 65 % 1019,6 hPa 0,0 l/m 10,5 km/h (2 Bft) SW22.5 230 0 min 202 lux 0 W/m
07.08.2016 21:10 23,4 C 22,5 C 64 % 1019,6 hPa 0,0 l/m 14,1 km/h (3 Bft) SW22.5 225 0 min 132 lux 0 W/m
07.08.2016 21:15 23,4 C 22,5 C 65 % 1019,6 hPa 0,0 l/m 13,2 km/h (3 Bft) SW22.5 225 0 min 94 lux 0 W/m
07.08.2016 21:20 23,3 C 22,5 C 65 % 1019,6 hPa 0,0 l/m 14,8 km/h (3 Bft) SW22.5 225 0 min 63 lux 0 W/m
07.08.2016 21:25 23,3 C 22,5 C 65 % 1019,6 hPa 0,0 l/m 12,1 km/h (2 Bft) SW22.5 225 0 min 48 lux 0 W/m
07.08.2016 21:31 23,3 C 22,4 C 65 % 1019,6 hPa 0,0 l/m 9,2 km/h (2 Bft) SW22.5 220 0 min 34 lux 0 W/m
07.08.2016 21:35 23,2 C 22,5 C 65 % 1019,6 hPa 0,0 l/m 9,9 km/h (2 Bft) SW22.5 215 0 min 17 lux 0 W/m
07.08.2016 21:40 23,2 C 22,4 C 65 % 1019,6 hPa 0,0 l/m 9,4 km/h (2 Bft) S-SW22.5 195 0 min 11 lux 0 W/m
07.08.2016 21:45 23,2 C 22,3 C 66 % 1019,6 hPa 0,0 l/m 8,1 km/h (2 Bft) SW 215 0 min 4 lux 0 W/m
07.08.2016 21:50 23,2 C 22,5 C 66 % 1019,6 hPa 0,0 l/m 8,5 km/h (2 Bft) S-SW22.5 200 0 min 4 lux 0 W/m
07.08.2016 21:56 23,2 C 22,5 C 65 % 1019,6 hPa 0,0 l/m 9,9 km/h (2 Bft) S22.5 185 0 min 2 lux 0 W/m
07.08.2016 22:00 23,2 C 22,5 C 65 % 1019,6 hPa 0,0 l/m 10,8 km/h (2 Bft) S-SW22.5 195 0 min 2 lux 0 W/m
07.08.2016 22:05 23,2 C 22,5 C 65 % 1019,6 hPa 0,0 l/m 10,8 km/h (2 Bft) S45 185 0 min 2 lux 0 W/m
07.08.2016 22:10 23,2 C 22,3 C 65 % 1019,6 hPa 0,0 l/m 11,0 km/h (2 Bft) S-SW22.5 200 0 min 1 lux 0 W/m
07.08.2016 22:16 23,1 C 22,3 C 65 % 1019,6 hPa 0,0 l/m 11,3 km/h (2 Bft) SW22.5 220 0 min 1 lux 0 W/m
07.08.2016 22:20 23,1 C 22,3 C 66 % 1019,6 hPa 0,0 l/m 8,5 km/h (2 Bft) S-SW22.5 200 0 min 1 lux 0 W/m
07.08.2016 22:25 23,1 C 22,2 C 66 % 1019,6 hPa 0,0 l/m 9,6 km/h (2 Bft) S-SW22.5 205 0 min 1 lux 0 W/m
07.08.2016 22:30 23,0 C 22,3 C 66 % 1019,6 hPa 0,0 l/m 9,8 km/h (2 Bft) S-SW45 210 0 min 0 lux 0 W/m
07.08.2016 22:35 23,0 C 22,4 C 66 % 1019,6 hPa 0,0 l/m 10,0 km/h (2 Bft) SW22.5 215 0 min 0 lux 0 W/m
07.08.2016 22:41 23,0 C 22,2 C 66 % 1019,6 hPa 0,0 l/m 12,1 km/h (2 Bft) SW22.5 215 0 min 0 lux 0 W/m
07.08.2016 22:45 23,0 C 22,1 C 66 % 1019,6 hPa 0,0 l/m 8,3 km/h (2 Bft) SW 225 0 min 0 lux 0 W/m
07.08.2016 22:50 22,8 C 22,1 C 66 % 1019,6 hPa 0,0 l/m 4,0 km/h (1 Bft) SW 225 0 min 0 lux 0 W/m
07.08.2016 22:55 22,7 C 22,0 C 67 % 1019,6 hPa 0,0 l/m 7,1 km/h (2 Bft) SW 230 0 min 0 lux 0 W/m
07.08.2016 23:00 22,6 C 22,0 C 67 % 1019,6 hPa 0,0 l/m 9,7 km/h (2 Bft) SW 230 0 min 0 lux 0 W/m
07.08.2016 23:05 22,5 C 22,0 C 68 % 1019,6 hPa 0,0 l/m 9,2 km/h (2 Bft) SW22.5 230 0 min 0 lux 0 W/m
07.08.2016 23:10 22,4 C 22,0 C 68 % 1019,6 hPa 0,0 l/m 14,1 km/h (3 Bft) SW22.5 230 0 min 0 lux 0 W/m
07.08.2016 23:15 22,4 C 22,0 C 68 % 1019,6 hPa 0,0 l/m 10,0 km/h (2 Bft) SW22.5 235 0 min 0 lux 0 W/m
07.08.2016 23:20 22,4 C 22,0 C 68 % 1019,6 hPa 0,0 l/m 9,4 km/h (2 Bft) SW22.5 225 0 min 0 lux 0 W/m
07.08.2016 23:26 22,4 C 22,0 C 68 % 1019,6 hPa 0,0 l/m 8,7 km/h (2 Bft) SW 225 0 min 0 lux 0 W/m
07.08.2016 23:30 22,4 C 21,9 C 68 % 1019,6 hPa 0,0 l/m 14,0 km/h (3 Bft) SW22.5 220 0 min 0 lux 0 W/m
07.08.2016 23:35 22,3 C 22,0 C 68 % 1019,6 hPa 0,0 l/m 12,7 km/h (3 Bft) SW22.5 225 0 min 0 lux 0 W/m
07.08.2016 23:40 22,3 C 21,9 C 68 % 1019,6 hPa 0,0 l/m 13,1 km/h (3 Bft) SW22.5 230 0 min 0 lux 0 W/m
07.08.2016 23:45 22,2 C 21,9 C 68 % 1019,7 hPa 0,0 l/m 9,9 km/h (2 Bft) SW22.5 230 0 min 0 lux 0 W/m
07.08.2016 23:51 22,2 C 21,8 C 68 % 1019,7 hPa 0,0 l/m 9,2 km/h (2 Bft) SW22.5 235 0 min 0 lux 0 W/m
07.08.2016 23:55 22,1 C 21,9 C 68 % 1019,7 hPa 0,0 l/m 10,8 km/h (2 Bft) SW22.5 235 0 min 0 lux 0 W/m
_ Min-Zeit 04:21 06:35 13:00 21:06 - 01:40 - - - - -
Minimum _ 12,0 C 16,5 C 45 % 1019,6 hPa - 0,0 km/h (0 Bft) - - - - -
_ Max-Zeit 14:30 14:30 07:15 04:21 00:00 14:00 - - 08:01 13:20 13:20
Maximum _ 27,0 C 24,3 C 84 % 1026,8 hPa 0,0 l/m 38,6 km/h
SW (6 Bft)
- - 6 min 105 klux 718 W/m
Durchschnitt _ 20,0 C 20,2 C 66 % 1023,9 hPa #0,0 l/m 15,9 km/h (3 Bft) SW - #7:17 h 24,8 klux 275 W/m